Glencoe, MN

7:07 AM CST on December 08, 2019 (GMT -0600)
Glencoe Municipal

Weather History for KGYL - October, 2019

Change the Weather History Date:

Tuesday, October 8, 2019

  Actual Average (KHCD) Record (KHCD)
Temperature  
Mean Temperature 61 °F -  
Max Temperature 72 °F 62 °F 86 °F (1980)
Min Temperature 50 °F 40 °F 17 °F (2000)
Degree Days  
Heating Degree Days 4    
Growing Degree Days 11 (Base 50)    
Moisture  
Dew Point 41 °F    
Average Humidity 45    
Maximum Humidity 71    
Minimum Humidity 32    
Precipitation  
Precipitation 0.00 in - - ()
Sea Level Pressure  
Sea Level Pressure 29.91 in    
Wind  
Wind Speed 11 mph (SSE)    
Max Wind Speed 20 mph    
Max Gust Speed 31 mph    
Visibility 10 miles    
Events      
Averages and records for this station are not official NWS values.
T = Trace of Precipitation, MM = Missing Value Source: NWS Daily Summary

Daily Weather History Graph

Daily Weather History Graph

Search for Another Location

Airport or City:

Astronomy

Oct. 08, 2019 Rise Set
Actual Time 7:22 AM CDT 6:44 PM CDT
Civil Twilight 6:53 AM CDT 7:13 PM CDT
Nautical Twilight 6:19 AM CDT 7:47 PM CDT
Astronomical Twilight 5:45 AM CDT 8:21 PM CDT
Moon 4:58 PM CDT 1:56 AM CDT
Length of Visible Light 12h 20m
Length of Day
11h 21m
Waxing Gibbous, 78% of the Moon is Illuminated
Oct 8
Waxing Gibbous
Oct 13
Full
Oct 21
Last Quarter
Oct 27
New
Nov 4
First Quarter

Hourly Weather History & Observations

Time (CDT) Temp. Dew Point Humidity Pressure Visibility Wind Dir Wind Speed Gust Speed Precip Events Conditions
12:59 AM 51.8 °F 39.2 °F 62% 30.01 in 10.0 mi SSE 6.9 mph - N/A   Clear
2:59 AM 51.8 °F 39.2 °F 62% 29.99 in 10.0 mi South 6.9 mph - N/A   Clear
3:59 AM 51.8 °F 41.0 °F 67% 29.99 in 10.0 mi South 5.8 mph - N/A   Clear
4:59 AM 51.8 °F 41.0 °F 67% 29.99 in 10.0 mi South 5.8 mph - N/A   Clear
5:59 AM 51.8 °F 41.0 °F 67% 29.98 in 10.0 mi South 6.9 mph - N/A   Clear
6:59 AM 50.0 °F 41.0 °F 71% 29.98 in 10.0 mi SSE 6.9 mph - N/A   Clear
7:59 AM 51.8 °F 41.0 °F 67% 29.97 in 10.0 mi South 5.8 mph - N/A   Clear
8:59 AM 55.4 °F 41.0 °F 58% 29.97 in 10.0 mi South 8.1 mph 17.3 mph N/A   Clear
9:59 AM 60.8 °F 42.8 °F 52% 29.96 in 10.0 mi South 12.7 mph 23.0 mph N/A   Clear
10:59 AM 64.4 °F 41.0 °F 42% 29.96 in 10.0 mi South 16.1 mph 29.9 mph N/A   Clear
11:59 AM 68.0 °F 41.0 °F 37% 29.94 in 10.0 mi South 18.4 mph 31.1 mph N/A   Clear
12:19 PM - - N/A% 29.94 in 10.0 mi South 19.6 mph 28.8 mph N/A   Clear
12:35 PM - - N/A% 29.93 in 10.0 mi South 12.7 mph 25.3 mph N/A   Clear
1:04 PM - - N/A% 29.92 in 10.0 mi South 18.4 mph 24.2 mph N/A   Clear
1:20 PM 70.3 °F 40.6 °F 34% 29.91 in 10.0 mi South 11.5 mph 28.8 mph N/A   Clear
1:36 PM 70.3 °F 40.1 °F 33% 29.90 in 10.0 mi South 17.3 mph 28.8 mph N/A   Clear
1:55 PM 71.1 °F 40.1 °F 32% 29.90 in 10.0 mi South 16.1 mph 27.6 mph N/A   Clear
2:15 PM 71.2 °F 40.1 °F 32% 29.89 in 10.0 mi SSE 15.0 mph 24.2 mph N/A   Clear
2:16 PM 71.2 °F 39.9 °F 32% 29.89 in 10.0 mi SSE 17.3 mph 25.3 mph N/A   Clear
2:38 PM 72.0 °F 40.5 °F 32% 29.88 in 10.0 mi South 13.8 mph 26.5 mph N/A   Clear
2:56 PM 72.3 °F 40.5 °F 32% 29.87 in 10.0 mi South 15.0 mph 24.2 mph N/A   Clear
3:15 PM 72.5 °F 41.5 °F 33% 29.87 in 10.0 mi South 13.8 mph 23.0 mph N/A   Clear
3:16 PM 72.5 °F 41.5 °F 33% 29.87 in 10.0 mi South 12.7 mph 23.0 mph N/A   Clear
3:38 PM 72.5 °F 41.0 °F 32% 29.87 in 10.0 mi SSE 17.3 mph 21.9 mph N/A   Clear
3:55 PM 72.0 °F 41.2 °F 33% 29.86 in 10.0 mi SSE 18.4 mph 25.3 mph N/A   Clear
3:56 PM 72.0 °F 41.2 °F 33% 29.86 in 10.0 mi SSE 17.3 mph 25.3 mph N/A   Clear
4:15 PM 72.0 °F 41.7 °F 34% 29.86 in 10.0 mi SSE 15.0 mph 25.3 mph N/A   Clear
4:36 PM 71.8 °F 41.5 °F 34% 29.86 in 10.0 mi South 11.5 mph 24.2 mph N/A   Clear
4:58 PM 71.2 °F 41.5 °F 34% 29.85 in 10.0 mi SSE 10.4 mph 23.0 mph N/A   Clear
5:21 PM 70.9 °F 41.4 °F 34% 29.85 in 10.0 mi SSE 10.4 mph 24.2 mph N/A   Clear
5:59 PM 69.8 °F 41.0 °F 35% 29.85 in 10.0 mi SSE 10.4 mph - N/A   Clear
6:59 PM 64.4 °F 41.0 °F 42% 29.85 in 10.0 mi SSE 10.4 mph - N/A   Clear
7:59 PM 62.6 °F 42.8 °F 48% 29.86 in 10.0 mi SSE 5.8 mph - N/A   Clear
8:59 PM 62.6 °F 42.8 °F 48% 29.87 in 10.0 mi SSE 9.2 mph - N/A   Clear
9:59 PM 60.8 °F 42.8 °F 52% 29.89 in 10.0 mi SSE 8.1 mph - N/A   Clear
10:59 PM 59.0 °F 44.6 °F 59% 29.90 in 10.0 mi SSE 5.8 mph - N/A   Clear
11:59 PM 57.2 °F 44.6 °F 63% 29.90 in 10.0 mi SSE 8.1 mph - N/A   Clear